Weather History for Beaver Island, MI

Change the Weather History Date:

Sunday, March 23, 2014

  Actual Average Record
Temperature  
Mean Temperature 12 °F -  
Max Temperature 20 °F 37 °F 53 °F (2007)
Min Temperature 3 °F 21 °F 3 °F (2014)
Degree Days  
Heating Degree Days 53    
Moisture  
Dew Point 5 °F    
Average Humidity 73    
Maximum Humidity 85    
Minimum Humidity 49    
Precipitation  
Precipitation 0.00 in - - ()
Sea Level Pressure  
Sea Level Pressure 30.34 in    
Wind  
Wind Speed 3 mph (WNW)    
Max Wind Speed 13 mph    
Max Gust Speed 17 mph    
Visibility 10 miles    
Events Snow    
Averages and records for this station are not official NWS values.
T = Trace of Precipitation, MM = Missing Value Source: NWS Daily Summary

Daily Weather History Graph

Daily Weather History Graph

Search for Another Location

Airport:

Trip Planner

Search our weather history database for the weather conditions in past years. The results will help you decide how hot, cold, wet, or windy it might be!

Date:

Astronomy

Mar. 23, 2014 Rise Set
Actual Time 7:39 AM EDT 7:58 PM EDT
Civil Twilight 7:09 AM EDT 8:28 PM EDT
Nautical Twilight 6:34 AM EDT 9:03 PM EDT
Astronomical Twilight 5:58 AM EDT 9:39 PM EDT
Moon 2:29 AM EDT (3/23) 12:05 PM EDT (3/23)
Length of Visible Light 13h 18m
Length of Day
12h 19m
Waning Gibbous, 55% of the Moon is Illuminated
Mar 23
Waning Gibbous
Mar 23
Last Quarter
Mar 30
New
Apr 7
First Quarter
Apr 15
Full

Hourly Weather History & Observations

Time (EDT) Temp. Windchill Dew Point Humidity Pressure Visibility Wind Dir Wind Speed Gust Speed Precip Events Conditions
12:15 AM 9.1 °F - 4.1 °F 80% 30.32 in 10.0 mi Calm Calm - N/A   Clear
12:36 AM 7.5 °F - 3.2 °F 82% 30.32 in 10.0 mi Calm Calm - N/A   Clear
12:56 AM 7.7 °F - 3.7 °F 84% 30.32 in 10.0 mi Calm Calm - N/A   Clear
1:16 AM 7.3 °F - 3.2 °F 83% 30.32 in 10.0 mi Calm Calm - N/A   Clear
1:36 AM 7.5 °F - 3.2 °F 82% 30.33 in 10.0 mi Calm Calm - N/A   Clear
1:56 AM 8.2 °F 1.6 °F 3.4 °F 81% 30.33 in 10.0 mi West 3.5 mph - N/A   Clear
2:16 AM 9.1 °F 2.6 °F 4.3 °F 81% 30.33 in 10.0 mi WNW 3.5 mph - N/A   Clear
2:36 AM 10.2 °F 0.6 °F 5.2 °F 80% 30.33 in 10.0 mi WNW 5.8 mph - N/A   Clear
2:55 AM 10.4 °F -0.4 °F 5.5 °F 81% 30.33 in 10.0 mi WNW 6.9 mph - N/A   Clear
3:16 AM 10.2 °F 0.6 °F 5.2 °F 80% 30.33 in 10.0 mi WNW 5.8 mph - N/A   Clear
3:36 AM 10.4 °F 4.0 °F 5.0 °F 79% 30.33 in 10.0 mi WNW 3.5 mph - N/A   Clear
3:55 AM 10.2 °F - 4.8 °F 79% 30.33 in 10.0 mi Calm Calm - N/A   Scattered Clouds
4:16 AM 10.0 °F 1.8 °F 4.5 °F 78% 30.33 in 10.0 mi WNW 4.6 mph - N/A Snow Light Snow
4:36 AM 9.3 °F 1.0 °F 4.1 °F 79% 30.33 in 10.0 mi WNW 4.6 mph - N/A   Scattered Clouds
4:55 AM 9.1 °F - 3.9 °F 79% 30.33 in 10.0 mi Calm Calm - N/A   Clear
5:16 AM 9.0 °F 0.6 °F 3.4 °F 78% 30.33 in 10.0 mi NW 4.6 mph - N/A   Clear
5:36 AM 8.6 °F 2.0 °F 3.4 °F 79% 30.33 in 10.0 mi NW 3.5 mph - N/A   Clear
5:56 AM 8.1 °F - 2.8 °F 79% 30.33 in 10.0 mi Calm Calm - N/A   Clear
6:16 AM 7.2 °F 0.3 °F 2.5 °F 81% 30.33 in 10.0 mi NW 3.5 mph - N/A   Clear
6:36 AM 6.8 °F - 2.3 °F 82% 30.34 in 10.0 mi Calm Calm - N/A   Clear
6:56 AM 6.6 °F -2.2 °F 2.3 °F 82% 30.34 in 10.0 mi WNW 4.6 mph - N/A   Clear
7:16 AM 6.4 °F - 2.1 °F 82% 30.35 in 10.0 mi Calm Calm - N/A   Clear
7:36 AM 5.7 °F - 1.8 °F 84% 30.35 in 10.0 mi Calm Calm - N/A   Clear
7:56 AM 5.7 °F - 1.9 °F 84% 30.36 in 10.0 mi Calm Calm - N/A   Clear
8:16 AM 6.4 °F - 2.3 °F 83% 30.36 in 10.0 mi Calm Calm - N/A   Clear
8:36 AM 6.8 °F - 2.3 °F 82% 30.36 in 10.0 mi Calm Calm - N/A   Clear
8:56 AM 7.2 °F -1.5 °F 2.3 °F 80% 30.36 in 10.0 mi NW 4.6 mph - N/A   Clear
9:15 AM 8.4 °F -0.1 °F 3.0 °F 79% 30.36 in 10.0 mi NW 4.6 mph - N/A   Clear
9:36 AM 8.8 °F 0.4 °F 3.0 °F 77% 30.36 in 10.0 mi WNW 4.6 mph - N/A   Clear
9:56 AM 9.5 °F 1.2 °F 3.2 °F 76% 30.36 in 10.0 mi NW 4.6 mph - N/A   Clear
10:16 AM 10.2 °F 0.6 °F 3.4 °F 74% 30.36 in 10.0 mi WNW 5.8 mph - N/A   Clear
10:36 AM 11.8 °F 3.9 °F 3.9 °F 71% 30.37 in 10.0 mi WNW 4.6 mph - N/A   Clear
10:56 AM 13.5 °F 5.8 °F 3.9 °F 66% 30.37 in 10.0 mi NW 4.6 mph - N/A   Clear
11:16 AM 14.2 °F 5.3 °F 3.7 °F 63% 30.37 in 10.0 mi NW 5.8 mph - N/A   Clear
11:36 AM 15.8 °F 7.2 °F 3.0 °F 57% 30.37 in 10.0 mi NW 5.8 mph - N/A   Clear
11:56 AM 16.7 °F 8.3 °F 3.0 °F 55% 30.36 in 10.0 mi NW 5.8 mph - N/A   Clear
12:16 PM 17.1 °F 7.6 °F 4.5 °F 58% 30.36 in 10.0 mi West 6.9 mph - N/A   Clear
12:36 PM 17.4 °F 7.1 °F 5.4 °F 59% 30.36 in 10.0 mi NW 8.1 mph - N/A   Scattered Clouds
12:55 PM 17.4 °F 8.0 °F 5.5 °F 60% 30.36 in 10.0 mi WNW 6.9 mph - N/A   Scattered Clouds
1:16 PM 18.5 °F 7.5 °F 3.4 °F 52% 30.36 in 10.0 mi WNW 9.2 mph - N/A   Scattered Clouds
1:35 PM 19.2 °F 9.3 °F 3.6 °F 51% 30.36 in 10.0 mi WSW 8.1 mph - N/A   Scattered Clouds
1:56 PM 18.5 °F 7.5 °F 3.7 °F 53% 30.35 in 10.0 mi West 9.2 mph - N/A   Mostly Cloudy
2:16 PM 18.7 °F 8.6 °F 6.6 °F 59% 30.35 in 10.0 mi WNW 8.1 mph - N/A   Mostly Cloudy
2:36 PM 18.7 °F 10.6 °F 7.5 °F 62% 30.34 in 7.0 mi WSW 5.8 mph - N/A   Overcast
2:56 PM 17.6 °F 6.4 °F 6.3 °F 61% 30.33 in 10.0 mi WNW 9.2 mph - N/A   Overcast
3:16 PM 17.6 °F 12.3 °F 8.4 °F 67% 30.33 in 7.0 mi West 3.5 mph - N/A   Overcast
3:36 PM 18.3 °F 8.2 °F 7.9 °F 64% 30.33 in 10.0 mi NW 8.1 mph - N/A   Overcast
3:56 PM 18.1 °F 5.6 °F 8.8 °F 67% 30.33 in 10.0 mi West 11.5 mph 17.3 mph N/A   Overcast
4:15 PM 18.5 °F 5.5 °F 10.0 °F 70% 30.33 in 7.0 mi West 12.7 mph 16.1 mph N/A   Overcast
4:36 PM 19.0 °F 9.0 °F 11.5 °F 72% 30.33 in 7.0 mi WSW 8.1 mph 16.1 mph N/A   Mostly Cloudy
4:56 PM 20.3 °F 10.6 °F 8.4 °F 60% 30.32 in 10.0 mi West 8.1 mph - N/A   Mostly Cloudy
5:15 PM 19.2 °F 10.2 °F 7.9 °F 61% 30.32 in 10.0 mi WSW 6.9 mph - N/A   Overcast
5:36 PM 19.2 °F 10.2 °F 4.8 °F 54% 30.31 in 10.0 mi NW 6.9 mph - N/A   Mostly Cloudy
5:55 PM 19.0 °F 11.1 °F 4.1 °F 52% 30.31 in 10.0 mi NNW 5.8 mph - N/A   Scattered Clouds
6:16 PM 19.8 °F 11.9 °F 3.4 °F 49% 30.31 in 10.0 mi West 5.8 mph - N/A   Clear
6:36 PM 18.5 °F 8.4 °F 5.4 °F 57% 30.32 in 10.0 mi WSW 8.1 mph - N/A   Mostly Cloudy
6:56 PM 17.4 °F 9.1 °F 8.1 °F 67% 30.32 in 10.0 mi WSW 5.8 mph - N/A   Mostly Cloudy
7:16 PM 17.4 °F 10.4 °F 9.1 °F 70% 30.32 in 10.0 mi SW 4.6 mph - N/A   Overcast
7:35 PM 16.9 °F 11.5 °F 9.3 °F 72% 30.32 in 10.0 mi SW 3.5 mph - N/A   Overcast
7:56 PM 15.6 °F - 8.2 °F 73% 30.32 in 10.0 mi Calm Calm - N/A   Scattered Clouds
8:16 PM 15.8 °F - 8.2 °F 72% 30.32 in 10.0 mi Calm Calm - N/A   Clear
8:35 PM 13.1 °F - 6.4 °F 75% 30.32 in 10.0 mi Calm Calm - N/A   Clear
8:56 PM 10.8 °F - 4.6 °F 76% 30.33 in 10.0 mi Calm Calm - N/A   Clear
9:16 PM 10.2 °F - 5.2 °F 80% 30.33 in 10.0 mi Calm Calm - N/A   Clear
9:36 PM 10.2 °F - 5.0 °F 79% 30.33 in 10.0 mi Calm Calm - N/A   Clear
9:56 PM 9.1 °F - 4.1 °F 80% 30.33 in 10.0 mi Calm Calm - N/A   Clear
10:16 PM 7.3 °F - 3.7 °F 85% 30.33 in 10.0 mi Calm Calm - N/A   Scattered Clouds
10:36 PM 7.3 °F - 3.2 °F 83% 30.33 in 10.0 mi Calm Calm - N/A   Scattered Clouds
10:55 PM 7.0 °F - 3.2 °F 84% 30.33 in 10.0 mi Calm Calm - N/A   Clear
11:16 PM 5.4 °F - 0.9 °F 82% 30.32 in 10.0 mi Calm Calm - N/A   Clear
11:36 PM 4.5 °F - 0.9 °F 85% 30.33 in 10.0 mi Calm Calm - N/A   Clear
11:55 PM 3.6 °F - -0.0 °F 85% 30.32 in 10.0 mi Calm Calm - N/A   Clear